Weather History for Glendive, MT

Change the Weather History Date:

Thursday, November 8, 2012

  Actual Average Record
Temperature  
Mean Temperature 36 °F -  
Max Temperature 42 °F 41 °F 71 °F (1999)
Min Temperature 30 °F 21 °F -2 °F (2000)
Degree Days  
Heating Degree Days 29    
Moisture  
Dew Point 29 °F    
Average Humidity 79    
Maximum Humidity 93    
Minimum Humidity 70    
Precipitation  
Precipitation 0.00 in - - ()
Sea Level Pressure  
Sea Level Pressure 30.01 in    
Wind  
Wind Speed 12 mph (NNE)    
Max Wind Speed 24 mph    
Max Gust Speed 31 mph    
Visibility 10 miles    
Events      
Averages and records for this station are not official NWS values.
T = Trace of Precipitation, MM = Missing Value Source: NWS Daily Summary

Daily Weather History Graph

Daily Weather History Graph

Search for Another Location

Airport:

Trip Planner

Search our weather history database for the weather conditions in past years. The results will help you decide how hot, cold, wet, or windy it might be!

Date:

Astronomy

Nov. 08, 2012 Rise Set
Actual Time 6:53 AM MST 4:31 PM MST
Civil Twilight 6:20 AM MST 5:04 PM MST
Nautical Twilight 5:44 AM MST 5:41 PM MST
Astronomical Twilight 5:08 AM MST 6:16 PM MST
Moon 12:28 AM MST (11/8) 1:34 PM MST (11/8)
Length of Visible Light 10h 43m
Length of Day
9h 38m
Waning Crescent, 32% of the Moon is Illuminated
Nov 8
Waning Crescent
Nov 13
New
Nov 20
First Quarter
Nov 28
Full
Dec 6
Last Quarter

Hourly Weather History & Observations

Time (MST) Temp. Windchill Dew Point Humidity Pressure Visibility Wind Dir Wind Speed Gust Speed Precip Events Conditions
12:15 AM 42.8 °F 38.0 °F 35.6 °F 76% 29.93 in 10.0 mi NW 8.1 mph - N/A   Overcast
12:35 AM 42.8 °F 35.8 °F 35.6 °F 76% 29.93 in 10.0 mi NNW 13.8 mph - N/A   Overcast
12:55 AM 41.0 °F 34.7 °F 33.8 °F 76% 29.93 in 10.0 mi NW 10.4 mph - N/A   Overcast
1:15 AM 39.2 °F 34.2 °F 33.8 °F 81% 29.94 in 10.0 mi NW 6.9 mph - N/A   Mostly Cloudy
1:35 AM 39.2 °F 34.2 °F 33.8 °F 81% 29.96 in 10.0 mi WNW 6.9 mph - N/A   Overcast
1:55 AM 39.2 °F 32.5 °F 33.8 °F 81% 29.96 in 10.0 mi NW 10.4 mph - N/A   Overcast
2:15 AM 37.4 °F 28.5 °F 33.8 °F 87% 29.98 in 10.0 mi NW 15.0 mph 18.4 mph N/A   Overcast
2:35 AM 37.4 °F 28.9 °F 32.0 °F 81% 29.98 in 10.0 mi NW 13.8 mph - N/A   Overcast
2:55 AM 37.4 °F 27.5 °F 32.0 °F 81% 29.98 in 10.0 mi NW 18.4 mph 21.9 mph N/A   Overcast
3:15 AM 35.6 °F 25.5 °F 30.2 °F 81% 29.98 in 10.0 mi NW 17.3 mph 25.3 mph N/A   Overcast
3:35 AM 35.6 °F 24.5 °F 30.2 °F 81% 29.98 in 10.0 mi NW 20.7 mph 25.3 mph N/A   Overcast
3:55 AM 35.6 °F 24.5 °F 28.4 °F 75% 29.98 in 10.0 mi NW 20.7 mph 26.5 mph N/A   Mostly Cloudy
4:15 AM 33.8 °F 21.3 °F 28.4 °F 81% 29.98 in 10.0 mi NW 24.2 mph 28.8 mph N/A   Scattered Clouds
4:35 AM 33.8 °F 22.5 °F 28.4 °F 81% 29.99 in 10.0 mi NW 19.6 mph 24.2 mph N/A   Partly Cloudy
4:55 AM 33.8 °F 23.2 °F 28.4 °F 81% 29.99 in 10.0 mi NW 17.3 mph 24.2 mph N/A   Clear
5:15 AM 33.8 °F 23.5 °F 28.4 °F 81% 30.01 in 10.0 mi NW 16.1 mph 25.3 mph N/A   Clear
5:35 AM 33.8 °F 25.3 °F 26.6 °F 75% 30.02 in 10.0 mi WNW 11.5 mph - N/A   Clear
5:55 AM 32.0 °F 23.0 °F 26.6 °F 80% 30.02 in 10.0 mi NW 11.5 mph - N/A   Clear
6:15 AM 33.8 °F 26.4 °F 28.4 °F 81% 30.02 in 10.0 mi NW 9.2 mph - N/A   Mostly Cloudy
6:35 AM 33.8 °F 27.7 °F 28.4 °F 81% 30.03 in 10.0 mi NNW 6.9 mph - N/A   Overcast
6:55 AM 33.8 °F 29.6 °F 28.4 °F 81% 30.04 in 10.0 mi NNW 4.6 mph - N/A   Overcast
7:15 AM 33.8 °F 28.6 °F 28.4 °F 81% 30.06 in 10.0 mi NNW 5.8 mph - N/A   Overcast
8:15 AM 33.8 °F - 28.4 °F 81% 30.07 in 10.0 mi Calm Calm - N/A   Overcast
8:35 AM 33.8 °F - 28.4 °F 81% 30.08 in 10.0 mi Calm Calm - N/A   Overcast
8:55 AM 35.6 °F 32.8 °F 28.4 °F 75% 30.08 in 10.0 mi North 3.5 mph - N/A   Overcast
9:15 AM 35.6 °F 29.9 °F 28.4 °F 75% 30.08 in 10.0 mi North 6.9 mph - N/A   Overcast
9:35 AM 35.6 °F 29.9 °F 28.4 °F 75% 30.08 in 10.0 mi NNW 6.9 mph - N/A   Overcast
9:55 AM 35.6 °F 30.7 °F 28.4 °F 75% 30.08 in 10.0 mi North 5.8 mph - N/A   Overcast
10:15 AM 35.6 °F 28.0 °F 28.4 °F 75% 30.09 in 10.0 mi ENE 10.4 mph - N/A   Overcast
10:35 AM 35.6 °F 28.0 °F 28.4 °F 75% 30.09 in 10.0 mi NE 10.4 mph - N/A   Overcast
10:55 AM 33.8 °F 25.3 °F 28.4 °F 81% 30.09 in 10.0 mi NE 11.5 mph - N/A   Overcast
11:15 AM 33.8 °F 25.8 °F 28.4 °F 81% 30.08 in 10.0 mi NE 10.4 mph - N/A   Overcast
11:35 AM 33.8 °F 25.8 °F 28.4 °F 81% 30.07 in 10.0 mi ENE 10.4 mph - N/A   Overcast
12:15 PM 35.6 °F 27.5 °F 26.6 °F 70% 30.06 in 10.0 mi NE 11.5 mph - N/A   Overcast
12:35 PM 35.6 °F 27.1 °F 26.6 °F 70% 30.05 in 10.0 mi NE 12.7 mph - N/A   Overcast
12:55 PM 35.6 °F 27.1 °F 26.6 °F 70% 30.04 in 10.0 mi NE 12.7 mph - N/A   Overcast
1:15 PM 35.6 °F 27.1 °F 26.6 °F 70% 30.04 in 10.0 mi ENE 12.7 mph - N/A   Overcast
1:35 PM 33.8 °F 24.8 °F 26.6 °F 75% 30.04 in 10.0 mi ENE 12.7 mph - N/A   Overcast
1:55 PM 33.8 °F 24.8 °F 26.6 °F 75% 30.04 in 10.0 mi NE 12.7 mph - N/A   Overcast
2:15 PM 33.8 °F 24.8 °F 26.6 °F 75% 30.03 in 10.0 mi NE 12.7 mph - N/A   Overcast
2:35 PM 33.8 °F 25.3 °F 26.6 °F 75% 30.02 in 10.0 mi NE 11.5 mph - N/A   Overcast
2:55 PM 33.8 °F 25.3 °F 26.6 °F 75% 30.02 in 10.0 mi NE 11.5 mph - N/A   Overcast
3:15 PM 33.8 °F 23.9 °F 26.6 °F 75% 30.02 in 10.0 mi NE 15.0 mph - N/A   Overcast
3:35 PM 33.8 °F 24.3 °F 26.6 °F 75% 30.01 in 10.0 mi NE 13.8 mph - N/A   Overcast
3:55 PM 33.8 °F 23.9 °F 26.6 °F 75% 30.01 in 10.0 mi NE 15.0 mph - N/A   Overcast
4:15 PM 33.8 °F 24.8 °F 26.6 °F 75% 30.01 in 7.0 mi NE 12.7 mph - N/A   Overcast
4:35 PM 33.8 °F 24.8 °F 26.6 °F 75% 30.01 in 10.0 mi ENE 12.7 mph - N/A   Overcast
4:55 PM 33.8 °F 24.8 °F 26.6 °F 75% 30.00 in 10.0 mi ENE 12.7 mph - N/A   Overcast
5:15 PM 33.8 °F 24.3 °F 28.4 °F 81% 30.00 in 10.0 mi ENE 13.8 mph - N/A   Overcast
5:35 PM 33.8 °F 25.8 °F 28.4 °F 81% 30.01 in 10.0 mi ENE 10.4 mph - N/A   Overcast
5:55 PM 33.8 °F 24.3 °F 28.4 °F 81% 30.00 in 10.0 mi ENE 13.8 mph - N/A   Overcast
6:15 PM 33.8 °F 22.8 °F 28.4 °F 81% 30.01 in 10.0 mi East 18.4 mph - N/A   Overcast
6:35 PM 33.8 °F 24.3 °F 26.6 °F 75% 30.01 in 10.0 mi East 13.8 mph 23.0 mph N/A   Overcast
6:55 PM 33.8 °F 23.9 °F 28.4 °F 81% 30.02 in 10.0 mi East 15.0 mph - N/A   Overcast
7:15 PM 33.8 °F 23.9 °F 26.6 °F 75% 30.02 in 10.0 mi East 15.0 mph - N/A   Overcast
7:35 PM 33.8 °F 22.5 °F 26.6 °F 75% 30.00 in 10.0 mi East 19.6 mph - N/A   Overcast
8:35 PM 32.0 °F 20.8 °F 28.4 °F 87% 30.01 in 9.0 mi East 17.3 mph 24.2 mph N/A   Overcast
8:55 PM 32.0 °F 20.5 °F 28.4 °F 87% 30.01 in 8.0 mi East 18.4 mph - N/A   Overcast
9:15 PM 30.2 °F 18.5 °F 28.4 °F 93% 30.01 in 7.0 mi East 17.3 mph - N/A   Overcast
9:35 PM 30.2 °F 18.1 °F 28.4 °F 93% 30.00 in 6.0 mi East 18.4 mph - N/A   Overcast
10:15 PM 30.2 °F 17.4 °F 28.4 °F 93% 29.98 in 8.0 mi East 20.7 mph 25.3 mph N/A   Overcast
10:35 PM 32.0 °F 19.8 °F 28.4 °F 87% 29.98 in 10.0 mi East 20.7 mph 26.5 mph N/A   Overcast
10:55 PM 32.0 °F 20.8 °F 28.4 °F 87% 29.98 in 10.0 mi East 17.3 mph 26.5 mph N/A   Overcast
11:15 PM 32.0 °F 20.1 °F 28.4 °F 87% 29.97 in 10.0 mi East 19.6 mph 24.2 mph N/A   Overcast
11:55 PM 32.0 °F 19.2 °F 26.6 °F 80% 29.97 in 10.0 mi East 23.0 mph 31.1 mph N/A   Overcast